Location: ASU Dark Sky Observatory
(36.2504°N, 81.4125°W)
Time: 22:15:54
(UTC-04:00)

Daily predictions for brighter satellites

Satellite Brightness Start Highest point End
(mag) Time Altitude Azimuth Time Altitude Azimuth Time Altitude Azimuth
Cosmos 2369 Rocket 3.8 20:55:53 10° NW 21:00:56 34° WSW 21:05:59 10° SSW
Cosmos 2315 Rocket 4.3 20:57:38 10° S 21:03:53 79° W 21:10:16 10° N
Cosmos 1544 Rocket 3.5 21:00:09 10° N 21:04:31 89° ESE 21:08:49 10° S
Cosmos 1943 Rocket 2.7 20:59:07 10° NNW 21:04:39 63° WSW 21:10:05 10° S
Aureole 1 Rocket 3.0 21:04:33 10° S 21:07:41 32° ESE 21:10:28 10° NE
Resurs 1-3 3.9 21:08:34 10° S 21:12:56 70° WSW 21:17:19 10° NNW
Cosmos 405 Rocket 2.7 21:10:38 10° S 21:14:18 60° E 21:18:04 10° NNE
DEBRIS 3.4 21:14:13 10° WSW 21:17:01 74° NW 21:24:57 10° NE
Cosmos 1500 4.0 21:14:34 10° NNW 21:18:14 53° W 21:21:52 10° S
Meteor 1-19 Rocket 4.3 21:12:57 10° S 21:18:42 66° E 21:24:24 10° NNE
Cosmos 923 Rocket 4.2 21:15:10 10° SSW 21:20:29 82° WNW 21:25:50 10° NNE
Tiangong 2 2.3 21:20:06 10° W 21:23:09 44° NNW 21:26:14 10° NE
Cosmos 1441 Rocket 3.7 21:19:43 10° SSE 21:23:10 37° E 21:26:38 10° NNE
ERS-1 Rocket 4.0 21:21:27 11° SE 21:25:25 29° ENE 21:29:41 10° N
Resurs 01 Rocket 2.9 21:22:29 10° S 21:26:41 41° W 21:30:53 10° NNW
Cosmos 1455 Rocket 3.8 21:25:10 10° NNW 21:29:25 54° W 21:33:37 10° S
CENTAUR R/B 3.2 21:21:22 10° NNW 21:29:27 88° NE 21:37:39 11° SSE
Nadezhda 1 Rocket 4.1 21:29:12 10° S 21:35:23 60° E 21:41:41 10° NNE
Meteor 1-29 2.8 21:32:39 10° NNE 21:36:01 80° ESE 21:39:22 10° S
COSMOS 2406 3.9 21:35:12 10° SW 21:40:50 60° WNW 21:46:30 10° NNE
Cosmos 2082 Rocket 3.5 21:41:51 17° SE 21:43:40 19° E 21:47:35 10° NE
ASTRO E2 3.9 21:44:50 10° WSW 21:48:16 27° SSW 21:49:56 20° SSE
CZ-4B DEB 2.8 21:48:36 16° S 21:50:49 67° WSW 21:53:48 10° NNW
Cosmos 1743 3.4 21:47:01 10° NNW 21:50:49 54° W 21:54:37 10° S
CRYOSAT 2 4.4 21:48:53 16° SSE 21:52:39 59° E 21:57:25 10° N
Cosmos 2112 Rocket 4.5 21:47:54 10° SSW 21:53:04 63° WNW 21:58:14 10° N
Cosmos 2154 Rocket 4.3 21:47:13 10° N 21:53:23 50° E 21:57:43 19° SSE
Cosmos 1238 Rocket 4.1 21:48:00 10° S 21:54:43 81° E 22:01:17 10° N
Aureole 3 Rocket 4.1 21:50:15 10° SSW 21:56:50 63° W 22:01:30 10° N
ISS -1.3 21:54:56 10° W 21:57:45 25° NNW 22:00:33 10° NNE
ASTEX 1 3.3 21:55:06 15° SSE 21:59:07 77° E 22:04:00 10° N
H-2A R/B 3.4 21:59:49 17° E 22:01:42 22° ENE 22:05:27 10° NNE
OAO 2 Rocket 3.2 21:57:01 10° W 22:01:57 76° S 22:05:07 22° ESE
Cosmos 1624 Rocket 4.5 21:57:52 10° N 22:02:57 46° ENE 22:05:36 26° SE
Helios 1A 4.1 21:59:14 10° S 22:03:13 41° W 22:07:12 10° NNW
SL-27 R/B 4.2 22:02:31 10° SW 22:05:55 36° WNW 22:09:19 10° N
Cosmos 967 Rocket 4.4 22:00:08 10° SSW 22:06:21 73° ESE 22:12:36 10° NNE
Cosmos 1939 Rocket 3.9 22:04:17 11° SSW 22:07:44 40° W 22:11:24 10° NNW
YAOGAN 6 2.7 22:06:34 23° S 22:08:34 66° W 22:12:03 10° NNW
Cosmos 2228 4.4 22:05:29 10° NNE 22:08:50 22° ENE 22:09:27 21° E
Cosmos 921 Rocket 4.1 22:07:23 10° N 22:11:22 31° ENE 22:12:33 27° E
Cosmos 1666 3.8 22:09:52 10° NNW 22:13:24 41° W 22:16:14 15° SSW
Meteor 2-9 Rocket 4.4 22:09:21 10° NNW 22:14:51 73° W 22:19:13 17° S
Okean 1-7 Rocket 4.1 22:11:46 10° SSW 22:16:09 59° W 22:20:35 10° N
Cosmos 1892 Rocket 3.7 22:15:23 33° SSE 22:17:07 55° E 22:21:26 10° NNE
DNEPR-1 R/B 4.3 22:16:22 10° NW 22:20:31 47° WSW 22:22:55 25° S
Cosmos 1833 Rocket 3.2 22:19:03 31° SE 22:20:47 38° ESE 22:25:58 10° NE
Intercosmos 24 3.6 22:18:01 10° N 22:21:43 83° W 22:22:54 40° S
Cosmos 2056 Rocket 3.5 22:17:10 10° NNW 22:22:17 64° ENE 22:24:17 36° SE
NOSS 8 (E) 4.3 22:19:23 12° SSW 22:22:30 82° ESE 22:26:06 10° NNE
CZ-3B Rocket 4.1 22:18:35 10° SSW 22:39:11 - ESE 22:21:33 20° S
Cosmos 1437 Rocket 2.6 22:20:24 10° N 22:24:16 80° E 22:25:17 48° SSE
MetOp-A 4.1 22:23:25 30° SSE 22:26:13 85° ENE 22:31:35 10° NNW
Cosmos 2341 Rocket 4.0 22:19:54 10° N 22:26:14 67° E 22:29:28 31° SSE
Cosmos 1606 Rocket 3.4 22:27:38 10° N 22:31:58 87° E 22:33:15 45° S
PSLV R/B 3.1 22:30:02 10° WNW 22:32:59 76° NW 22:32:59 76° NW
Cosmos 1066 Rocket 4.4 22:34:17 39° SE 22:35:41 48° E 22:41:04 10° NNE
USA 245 4.1 22:42:20 29° N 22:42:20 29° N 22:43:38 10° N
Cosmos 1726 Rocket 3.4 22:37:22 10° N 22:41:42 88° W 22:42:37 55° S
Cosmos 1515 4.0 22:40:58 42° SW 22:42:03 64° W 22:45:51 10° N
COSMOS 2487 2.5 22:43:44 70° WSW 22:44:01 76° WNW 22:47:36 10° NNE
CZ-3A R/B 2.8 22:46:32 10° WSW 22:49:34 22° NW 22:50:15 19° NNW
Landsat 7 4.1 22:52:27 48° E 22:52:55 50° ENE 22:57:30 10° N
SPOT 1/Viking Rocket 3.4 22:51:40 53° SSE 22:52:55 79° ENE 22:58:05 10° N
YAOGAN 11 4.4 22:52:10 45° SSW 22:53:08 58° W 22:57:24 10° NNW
Cosmos 2181 Rocket 4.1 22:49:25 24° SSW 22:53:32 76° W 22:59:52 10° N
Cosmos 1452 Rocket 3.8 22:49:09 10° N 22:54:17 50° ENE 22:55:04 46° E
Cosmos 1980 Rocket 3.6 22:50:37 10° N 22:55:06 24° ENE 22:56:23 22° ENE
Cosmos 2058 Rocket 3.0 22:51:53 10° N 22:56:19 84° W 22:56:50 69° S
Tiangong 2 3.2 22:57:42 10° WNW 23:00:22 24° N 23:00:58 22° NNE
ARGOS 3.4 22:58:31 39° SSW 23:00:26 62° W 23:05:49 10° NNW
Terra 2.2 23:07:57 49° ENE 23:07:57 49° ENE 23:12:32 10° N
USA 267 4.3 23:02:16 10° ENE 23:05:41 26° E 23:05:41 26° E
SPOT 5 3.4 23:09:29 39° WSW 23:10:07 42° W 23:14:16 10° NNW
H-2A R/B 2.5 23:15:12 54° NE 23:15:12 54° NE 23:19:18 10° N
IGS 5A 4.1 23:18:14 48° NNE 23:18:14 48° NNE 23:21:35 10° N
Cosmos 468 4.4 23:17:24 67° SSW 23:18:08 87° WNW 23:23:27 10° NNE
Cosmos 1812 Rocket 4.4 23:15:00 10° N 23:18:32 42° NE 23:18:32 42° NE
Cosmos 864 Rocket 4.4 23:13:19 10° N 23:19:37 76° E 23:20:40 61° SE
Meteor 2-21 4.3 23:17:51 10° N 23:23:56 88° E 23:24:52 66° S
Cosmos 1626 Rocket 3.8 23:26:20 64° NW 23:26:20 64° NW 23:30:12 10° N
Cosmos 2082 Rocket 2.9 23:23:35 20° SW 23:27:17 50° WNW 23:32:48 10° N
Meteor 2-21 Rocket 4.2 23:21:56 10° N 23:27:59 76° E 23:28:37 69° SE
Cosmos 2278 4.2 23:25:01 10° NNW 23:30:28 48° WSW 23:31:16 45° SW
SL-19 R/B 3.9 23:27:44 10° NNE 23:33:04 87° WNW 23:33:15 83° SW
Meteor 1-22 Rocket 4.0 23:29:12 10° N 23:34:32 87° W 23:34:39 85° SW
USA 229 DEB 4.3 23:30:18 10° NNW 23:37:15 51° NE 23:39:05 42° E
USA 229 4.3 23:30:24 10° NNW 23:37:21 50° NE 23:39:12 41° E
H-2A R/B 2.9 23:40:27 37° WSW 23:40:50 37° W 23:45:29 10° NNW
Cosmos 2366 rocket 4.1 23:36:32 10° NNW 23:42:37 66° W 23:43:33 57° SW
Cosmos 158 Rocket 4.1 23:46:06 76° WNW 23:46:06 76° WNW 23:51:25 10° NNE
Cosmos 1697 Rocket 2.7 23:45:31 10° NNW 23:50:57 68° W 23:50:57 68° W
Cosmos 2360 4.5 23:46:20 10° NNW 23:51:48 57° ENE 23:51:48 57° ENE
